Regional Weather Roundup
Issued by NWS Nashville, TN

Current Version | Previous Version | Text Only | Print | Product List | Glossary Off
Versions: 1 2 3 4 5 6 7 8 9 10 11 12 13 14 15 16 17 18 19 20 21 22 23 24 25 26 27 28 29 30 31 32 33 34 35 36 37 38 39 40 41 42 43 44 45 46 47 48 49 50

000
ASUS44 KOHX 010010
RWROHX
MIDDLE TENNESSEE HOURLY WEATHER ROUNDUP
NATIONAL WEATHER SERVICE NASHVILLE TN
700 PM CDT THU JUN 30 2016

NOTE: "FAIR" INDICATES FEW OR NO CLOUDS BELOW 12,000 FEET WITH
NO SIGNIFICANT WEATHER AND/OR OBSTRUCTIONS TO VISIBILITY.

* THESE REPORTS ARE NOT UNDER NWS QUALITY CONTROL AND MAY NOT
  REPORT WEATHER SUCH AS PRECIPITATION AND FOG.


TNZ005>011-023>034-057-059-062>066-078-080-010100
...NORTHERN MIDDLE TENNESSEE...

CITY           SKY/WX    TMP DP  RH WIND       PRES   REMARKS
CLARKSVILLE    SUNNY     81  61  50 SW3       29.96F
CROSSVILLE     SUNNY     79  53  40 NW5       30.04R
DICKSON        SUNNY     81  63  54 CALM      29.99F
LEBANON        SUNNY     82  56  40 N7        29.98S
NASHVILLE      MOSUNNY   85  54  34 NE7       29.98F
SMYRNA         SUNNY     85  58  39 NE7       29.98F
SPARTA         SUNNY     81  64  57 CALM      30.00S
$$
TNZ056-058-060-061-075>077-079-093>097-010100
...SOUTHERN MIDDLE TENNESSEE...

CITY           SKY/WX    TMP DP  RH WIND       PRES   REMARKS
COLUMBIA       SUNNY     84  61  45 NW5       29.97S
FAYETTEVILLE   SUNNY     82  57  42 N7        29.99S
LEWISBURG        N/A     84  60  44 N3        29.98S
MCMINNVILLE    SUNNY     82  61  47 NE6       30.01R
SHELBYVILLE    SUNNY     84  59  42 N6          N/A
TULLAHOMA      SUNNY     81  57  44 N5        30.01S
WINCHESTER     SUNNY     82  55  39 N7        30.00R
$$


...KEY TO REMARKS...
VSB - VISIBILITY IN MILES
WCI - WIND CHILL INDEX
HX  - HEAT INDEX




USA.gov is the U.S. government's official web portal to all federal, state and local government web resources and services.